Вернуться в каталог

STARLINK-5286

АктивенСвязьVLEO
NORAD 55294·PAYLOAD·🇺🇸 United States

Запущен Jan 19, 2023 с Vandenberg Space Force Base

Loading…

Ближайшие Пролёты (ближайшие 24 часа)

TLE

СвежийSource: CelesTrak SupGP

Эпоха: Sep 15, 2026, 02:40 UTC

1 55294C 23010AB  26258.11159722 -.00007392  00000+0 -61936-3 0  2580
2 55294  69.9995 286.7318 0003801 266.9093  50.4413 14.98341229    17

Отслеживайте STARLINK-5286 в реальном времени с AllMySat

Download on the App Store